Regional Weather Roundup
Issued by NWS Sioux Falls, SD

Home | Current Version | Previous Version | Text Only | Print | Product List | Glossary Off
Versions: 1 2 3 4 5 6 7 8 9 10 11 12 13 14 15 16 17 18 19 20 21 22 23 24 25 26 27 28 29 30 31 32 33 34 35 36 37 38 39 40 41 42 43 44 45 46 47 48 49 50

000
ASUS43 KFSD 210510
RWRFSD

WEATHER ROUNDUP FOR SE SOUTH DAKOTA/SW MINNESOTA/NW IOWA
NATIONAL WEATHER SERVICE SIOUX FALLS SD
1200 AM CDT TUE OCT 21 2014

NOTE: "FAIR" INDICATES FEW OR NO CLOUDS BELOW 12,000 FEET WITH NO
SIGNIFICANT WEATHER AND OR OBSTRUCTIONS TO VISIBILITY.


SDZ038>040-050-052>070-210600-
SOUTHEAST SOUTH DAKOTA

CITY           SKY/WX    TMP DP  RH WIND       PRES   REMARKS
CHAMBERLAIN    CLEAR     51  35  53 SE9       29.98S
HURON          CLEAR     48  34  58 SE8       30.01S
MADISON        FAIR      41  36  81 E8        30.06F
MITCHELL       CLEAR     46  36  68 SE6       30.02F
SIOUX FALLS    CLEAR     41  36  82 N3        30.06S
WINNER         FAIR      59  41  51 S13       29.95F
YANKTON        CLEAR     46  37  71 CALM      30.05S
$$

MNZ071-072-080-081-089-090-097-098-210600-
SOUTHWEST MINNESOTA

CITY           SKY/WX    TMP DP  RH WIND       PRES   REMARKS
FAIRMONT       CLEAR     43  36  75 N3        30.07S
JACKSON        CLEAR     39  34  81 CALM      30.08S
LUVERNE        CLEAR     41  34  75 CALM      30.08S
MARSHALL       CLEAR     39  30  70 CALM      30.06S
MONTEVIDEO     CLEAR     45  37  76 CALM      30.08S
PIPESTONE      CLEAR     46  36  66 E3        30.06F
REDWOOD FALLS  CLEAR     49  38  65 E3        30.07R
TRACY          CLEAR     45  37  75 SW5       30.08S
WINDOM         CLEAR     41  36  81 CALM      30.08R
WORTHINGTON    CLEAR     39  32  75 CALM      30.09R
$$

IAZ001>003-012>014-020>022-031-032-NEZ013-014-SDZ071-210600-
NORTHWEST IOWA

CITY           SKY/WX    TMP DP  RH WIND       PRES   REMARKS
CHEROKEE       CLEAR     39  38  94 CALM      30.08S
DENISON        CLEAR     39  39 100 E3        30.06S
ESTHERVILLE    CLEAR     40  35  83 N5        30.07R
LE MARS        PTCLDY    39  37  93 NE5       30.07S
ORANGE CITY    CLEAR     52  37  58 E3        30.07S
SHELDON        CLEAR     39  36  87 NE5       30.06S
SIOUX CITY     CLEAR     42  39  89 CALM      30.06F
SPENCER        CLEAR     38  34  85 N3        30.07S
STORM LAKE     CLEAR     52  37  58 N5        30.08S
$$

ABBREVIATIONS USED IN REMARKS
   TC - TEMPERATURE IN CELSIUS
  WCI - WIND CHILL INDEX
   HX - HEAT INDEX
  VSB - VISIBILITY



USA.gov is the U.S. government's official web portal to all federal, state and local government web resources and services.